Location: Newark
(45.4422°N, 16.2769°E)
Time: 18:34:38
(UTC+00:00)

Vanguard 2 - Visible Passes

Search period start: 10 December 2019 00:00
Search period end: 20 December 2019 00:00
Orbit: 553 x 2938 km, 32.9° (Epoch: 09 December)

Date Brightness Start Highest point End Pass type
(mag) Time Alt. Az. Time Alt. Az. Time Alt. Az.
10 Dec 10.5 01:51:40 51° S 01:52:02 51° S 02:07:55 10° ESE visible
10 Dec 10.6 03:53:04 27° WSW 04:03:30 50° SSW 04:17:27 10° ESE visible
11 Dec 11.3 00:07:02 27° ESE 00:07:02 27° ESE 00:14:23 10° E visible
11 Dec 10.4 02:08:26 52° S 02:09:50 53° S 02:25:47 10° ESE visible
11 Dec 10.7 04:09:50 23° WSW 04:21:12 47° SSW 04:34:56 10° SE visible
12 Dec 11.1 00:23:48 32° ESE 00:23:48 32° ESE 00:32:31 10° E visible
12 Dec 10.4 02:25:12 51° SSW 02:27:39 54° S 02:43:34 10° ESE visible
12 Dec 10.8 04:26:36 19° WSW 04:38:50 43° SSW 04:52:15 10° SE visible
13 Dec 11.0 00:40:33 37° ESE 00:40:33 37° ESE 00:50:32 10° E visible
13 Dec 10.4 02:41:58 48° SW 02:45:27 53° S 03:01:16 10° ESE visible
13 Dec 10.9 04:43:21 15° W 04:56:21 38° SSW 05:09:22 10° SSE visible
14 Dec 10.8 00:57:19 41° SE 00:57:19 41° SE 01:08:29 10° ESE visible
14 Dec 10.5 02:58:43 44° SW 03:03:14 50° SSW 03:18:51 10° SE visible
14 Dec 11.0 05:00:07 12° W 05:13:47 33° SSW 05:26:11 10° SSE visible
14 Dec 11.8 23:12:41 13° E 23:12:41 13° E 23:14:10 10° E visible
15 Dec 10.7 01:14:04 45° SE 01:14:04 45° SE 01:26:22 10° ESE visible
15 Dec 10.6 03:15:29 39° SW 03:20:57 47° SSW 03:36:17 10° SE visible
15 Dec 11.2 05:17:54 10° W 05:31:06 27° SW 05:42:38 10° SSE visible
15 Dec 11.7 23:29:27 17° E 23:29:27 17° E 23:32:18 10° E visible
16 Dec 10.6 01:30:51 48° SSE 01:30:51 48° SSE 01:44:09 10° ESE visible
16 Dec 10.7 03:32:15 33° WSW 03:38:36 42° SSW 03:53:32 10° SE visible
16 Dec 11.4 05:36:56 10° W 05:48:21 21° SW 05:58:32 10° S visible
16 Dec 11.5 23:46:15 20° ESE 23:46:15 20° ESE 23:50:20 10° E visible
17 Dec 10.5 01:47:39 49° SSE 01:47:39 49° SSE 02:01:50 10° ESE visible
17 Dec 10.8 03:49:03 28° WSW 03:56:11 37° SSW 04:10:32 10° SSE visible
17 Dec 11.5 05:56:52 10° WSW 06:05:30 16° SW 06:13:28 10° SSW visible
18 Dec 11.4 00:03:04 23° ESE 00:03:04 23° ESE 00:08:18 10° ESE visible
18 Dec 10.5 02:04:29 48° S 02:04:29 48° S 02:19:24 10° SE visible
18 Dec 11.0 04:05:53 23° WSW 04:13:39 32° SSW 04:27:12 10° SSE visible
19 Dec 11.3 00:19:55 26° ESE 00:19:55 26° ESE 00:26:10 10° ESE visible
19 Dec 10.6 02:21:20 45° SSW 02:21:20 45° SSW 02:36:46 10° SE visible
19 Dec 11.2 04:22:44 18° WSW 04:31:04 26° SW 04:43:27 10° S visible
